Location: Asheville, NC
(35.6000°N, 82.5500°W)
Time: 01:37:09
(UTC-05:00)

AO-7 - Pass Details

Date: 06 January 2018
Orbit: 1440 x 1458 km, 101.7° (Epoch: 20 January)

Event Time Altitude Azimuth Distance (km) Brightness Sun altitude
Rises 03:18:35 0° 24° (NNE) 4,569 ? -52.4°
Reaches altitude 10° 03:21:39 10° 32° (NNE) 3,586 ? -51.8°
Enters shadow 03:24:49 24° 47° (NE) 2,679 ? -51.2°
